When you browse on this site, cookies collect data to enhance your experience and personalize the content and advertising you see.
Visit our Privacy Policy to learn more. By continuing to use the site, you agree to this use of cookies and data.
  • în România
  • Lista ţărilor
  • Pe 7 zile
  • Temperatura apei
  • Hartă satelitară
  • Meteo pe hartă
  • Widget-uri
  • user-avatar
    Intrare

    Meteo pe oră la Irbid

    Astăzi, 20 Ianuarie, Duminică

    Timp Temperatura Precipitaţii Vânt Presiune Umiditate
    00:00 +7°C° 0 mm 2 m/s 715 mmHg 59%
    01:00 +7°C° 0 mm 2 m/s 715 mmHg 61%
    02:00 +7°C° 0 mm 2 m/s 714 mmHg 63%
    03:00 +6°C° 0 mm 2 m/s 714 mmHg 64%
    04:00 +5°C° 0 mm 3 m/s 714 mmHg 65%
    05:00 +5°C° 0 mm 3 m/s 714 mmHg 66%
    06:00 +7°C° 0 mm 3 m/s 714 mmHg 65%
    07:00 +7°C° 0 mm 3 m/s 715 mmHg 64%
    08:00 +8°C° 0 mm 3 m/s 715 mmHg 64%
    09:00 +8°C° 0 mm 4 m/s 715 mmHg 58%
    10:00 +11°C° 0 mm 4 m/s 715 mmHg 52%
    11:00 +13°C° 0 mm 4 m/s 715 mmHg 46%
    12:00 +13°C° 0 mm 4 m/s 714 mmHg 43%
    13:00 +14°C° 0 mm 4 m/s 714 mmHg 41%
    14:00 +14°C° 0 mm 5 m/s 714 mmHg 40%
    15:00 +13°C° 0 mm 4 m/s 714 mmHg 42%
    16:00 +12°C° 0 mm 4 m/s 713 mmHg 44%
    17:00 +11°C° 0 mm 3 m/s 713 mmHg 46%
    18:00 +11°C° 0 mm 3 m/s 713 mmHg 47%
    19:00 +10°C° 0 mm 3 m/s 713 mmHg 48%
    20:00 +10°C° 0 mm 3 m/s 713 mmHg 48%
    21:00 +10°C° 0 mm 3 m/s 713 mmHg 49%
    22:00 +10°C° 0 mm 3 m/s 713 mmHg 49%
    23:00 +9°C° 0 mm 2 m/s 713 mmHg 49%

    Mâine, 21 Ianuarie, Luni

    Timp Temperatura Precipitaţii Vânt Presiune Umiditate
    00:00 +9°C° 0 mm 2 m/s 713 mmHg 50%
    01:00 +9°C° 0 mm 2 m/s 713 mmHg 51%
    02:00 +8°C° 0 mm 2 m/s 712 mmHg 52%
    03:00 +8°C° 0 mm 2 m/s 712 mmHg 53%
    04:00 +7°C° 0 mm 2 m/s 712 mmHg 55%
    05:00 +7°C° 0 mm 2 m/s 712 mmHg 56%
    06:00 +8°C° 0 mm 2 m/s 712 mmHg 56%
    07:00 +8°C° 0 mm 2 m/s 713 mmHg 55%
    08:00 +9°C° 0 mm 2 m/s 713 mmHg 54%
    09:00 +10°C° 0 mm 2 m/s 713 mmHg 49%
    10:00 +13°C° 0 mm 1 m/s 713 mmHg 44%
    11:00 +14°C° 0 mm 1 m/s 714 mmHg 39%
    12:00 +15°C° 0 mm 1 m/s 713 mmHg 36%
    13:00 +16°C° 0 mm 1 m/s 713 mmHg 34%
    14:00 +16°C° 0 mm 1 m/s 713 mmHg 31%
    15:00 +15°C° 0 mm 1 m/s 712 mmHg 36%
    16:00 +14°C° 0 mm 1 m/s 712 mmHg 41%
    17:00 +13°C° 0 mm 1 m/s 712 mmHg 45%
    18:00 +12°C° 0 mm 1 m/s 712 mmHg 48%
    19:00 +12°C° 0 mm 1 m/s 712 mmHg 52%
    20:00 +10°C° 0 mm 0 m/s 712 mmHg 55%
    21:00 +9°C° 0 mm 0 m/s 712 mmHg 55%
    22:00 +10°C° 0 mm 1 m/s 712 mmHg 55%
    23:00 +10°C° 0 mm 1 m/s 712 mmHg 55%

    Poimâine, 22 Ianuarie, Marţi

    Timp Temperatura Precipitaţii Vânt Presiune Umiditate
    00:00 +10°C° 0 mm 1 m/s 712 mmHg 55%
    01:00 +8°C° 0 mm 0 m/s 712 mmHg 55%
    02:00 +8°C° 0 mm 0 m/s 712 mmHg 55%
    03:00 +9°C° 0 mm 1 m/s 711 mmHg 54%
    04:00 +9°C° 0 mm 1 m/s 711 mmHg 54%
    05:00 +8°C° 0 mm 1 m/s 711 mmHg 54%
    06:00 +9°C° 0 mm 1 m/s 711 mmHg 53%
    07:00 +11°C° 0 mm 1 m/s 712 mmHg 51%
    08:00 +12°C° 0 mm 1 m/s 712 mmHg 50%
    09:00 +13°C° 0 mm 1 m/s 713 mmHg 44%
    10:00 +15°C° 0 mm 1 m/s 713 mmHg 39%
    11:00 +15°C° 0 mm 0 m/s 713 mmHg 33%
    12:00 +18°C° 0 mm 1 m/s 713 mmHg 32%
    13:00 +17°C° 0 mm 2 m/s 713 mmHg 32%
    14:00 +18°C° 0 mm 2 m/s 712 mmHg 31%
    15:00 +17°C° 0 mm 2 m/s 712 mmHg 37%
    16:00 +15°C° 0 mm 2 m/s 712 mmHg 43%
    17:00 +14°C° 0 mm 2 m/s 712 mmHg 49%
    18:00 +13°C° 0 mm 1 m/s 712 mmHg 54%
    19:00 +12°C° 0 mm 1 m/s 712 mmHg 60%
    20:00 +11°C° 0 mm 1 m/s 712 mmHg 66%
    21:00 +9°C° 0 mm 0 m/s 712 mmHg 67%
    22:00 +9°C° 0 mm 0 m/s 712 mmHg 69%
    23:00 +8°C° 0 mm 0 m/s 712 mmHg 71%

    23 Ianuarie, Miercuri

    Timp Temperatura Precipitaţii Vânt Presiune Umiditate
    00:00 +8°C° 0 mm 0 m/s 712 mmHg 70%
    01:00 +8°C° 0 mm 0 m/s 712 mmHg 70%
    02:00 +8°C° 0 mm 0 m/s 712 mmHg 69%
    03:00 +7°C° 0 mm 0 m/s 712 mmHg 68%
    04:00 +8°C° 0 mm 1 m/s 711 mmHg 67%
    05:00 +8°C° 0 mm 1 m/s 711 mmHg 67%
    06:00 +9°C° 0 mm 1 m/s 712 mmHg 63%
    07:00 +10°C° 0 mm 1 m/s 712 mmHg 59%
    08:00 +11°C° 0 mm 1 m/s 713 mmHg 56%
    09:00 +13°C° 0 mm 1 m/s 713 mmHg 49%
    10:00 +14°C° 0 mm 1 m/s 713 mmHg 41%
    11:00 +16°C° 0 mm 2 m/s 713 mmHg 34%
    12:00 +17°C° 0 mm 2 m/s 713 mmHg 31%
    13:00 +18°C° 0 mm 2 m/s 712 mmHg 28%
    14:00 +18°C° 0 mm 2 m/s 712 mmHg 26%
    15:00 +17°C° 0 mm 2 m/s 711 mmHg 29%
    16:00 +16°C° 0 mm 2 m/s 711 mmHg 32%
    17:00 +15°C° 0 mm 2 m/s 711 mmHg 35%
    18:00 +13°C° 0 mm 3 m/s 711 mmHg 37%
    19:00 +13°C° 0 mm 3 m/s 711 mmHg 38%
    20:00 +12°C° 0 mm 4 m/s 711 mmHg 40%
    21:00 +12°C° 0 mm 3 m/s 711 mmHg 41%
    22:00 +11°C° 0 mm 3 m/s 711 mmHg 42%
    23:00 +11°C° 0 mm 3 m/s 710 mmHg 43%

    24 Ianuarie, Joi

    Timp Temperatura Precipitaţii Vânt Presiune Umiditate
    00:00 +10°C° 0 mm 3 m/s 710 mmHg 44%
    01:00 +10°C° 0 mm 3 m/s 710 mmHg 45%
    02:00 +10°C° 0 mm 3 m/s 709 mmHg 46%
    03:00 +9°C° 0 mm 3 m/s 709 mmHg 46%
    04:00 +8°C° 0 mm 4 m/s 709 mmHg 46%
    05:00 +8°C° 0 mm 4 m/s 709 mmHg 47%
    06:00 +8°C° 0 mm 4 m/s 709 mmHg 47%
    07:00 +10°C° 0 mm 4 m/s 709 mmHg 47%
    08:00 +10°C° 0 mm 4 m/s 709 mmHg 47%
    09:00 +12°C° 0 mm 4 m/s 709 mmHg 43%
    10:00 +13°C° 0 mm 4 m/s 710 mmHg 39%
    11:00 +16°C° 0 mm 3 m/s 710 mmHg 34%
    12:00 +17°C° 0 mm 4 m/s 709 mmHg 31%
    13:00 +18°C° 0 mm 4 m/s 709 mmHg 29%
    14:00 +19°C° 0 mm 5 m/s 708 mmHg 26%
    15:00 +18°C° 0 mm 4 m/s 708 mmHg 29%
    16:00 +17°C° 0 mm 4 m/s 708 mmHg 31%
    17:00 +14°C° 0 mm 3 m/s 707 mmHg 34%
    18:00 +14°C° 0 mm 3 m/s 708 mmHg 35%
    19:00 +14°C° 0 mm 2 m/s 708 mmHg 37%
    20:00 +13°C° 0 mm 2 m/s 708 mmHg 38%
    21:00 +13°C° 0 mm 2 m/s 709 mmHg 40%
    22:00 +12°C° 0 mm 2 m/s 709 mmHg 42%
    23:00 +10°C° 0 mm 2 m/s 709 mmHg 44%

    25 Ianuarie, Vineri

    Timp Temperatura Precipitaţii Vânt Presiune Umiditate
    00:00 +10°C° 0 mm 2 m/s 709 mmHg 55%
    01:00 +10°C° 0 mm 1 m/s 710 mmHg 65%
    02:00 +9°C° 0 mm 1 m/s 710 mmHg 76%
    03:00 +9°C° 0 mm 1 m/s 710 mmHg 81%
    04:00 +8°C° 0 mm 1 m/s 710 mmHg 86%
    05:00 +7°C° 0 mm 0 m/s 710 mmHg 91%
    06:00 +9°C° 0 mm 1 m/s 711 mmHg 89%
    07:00 +10°C° 0 mm 1 m/s 711 mmHg 88%
    08:00 +11°C° 0 mm 1 m/s 712 mmHg 87%
    09:00 +12°C° 0 mm 1 m/s 712 mmHg 79%
    10:00 +13°C° 0 mm 1 m/s 712 mmHg 70%
    11:00 +15°C° 0 mm 1 m/s 712 mmHg 62%
    12:00 +15°C° 0 mm 1 m/s 711 mmHg 56%
    13:00 +16°C° 0 mm 1 m/s 711 mmHg 50%
    14:00 +18°C° 0 mm 1 m/s 711 mmHg 43%
    15:00 +16°C° 0 mm 1 m/s 710 mmHg 48%
    16:00 +15°C° 0 mm 1 m/s 710 mmHg 52%
    17:00 +13°C° 0 mm 0 m/s 710 mmHg 56%
    18:00 +14°C° 0 mm 1 m/s 710 mmHg 57%
    19:00 +13°C° 0 mm 1 m/s 710 mmHg 57%
    20:00 +13°C° 0 mm 1 m/s 710 mmHg 58%
    21:00 +12°C° 0 mm 1 m/s 709 mmHg 59%
    22:00 +12°C° 0 mm 1 m/s 709 mmHg 59%
    23:00 +12°C° 0 mm 2 m/s 709 mmHg 60%
    Arată mai mult